Location: Croisilles
(50.1998°N, 2.8793°E)
Time: 15:36:54
(UTC+00:00)

Daily predictions for brighter satellites

Satellite Brightness Start Highest point End
(mag) Time Altitude Azimuth Time Altitude Azimuth Time Altitude Azimuth
NOSS 3-4 (A) 4.1 16:10:33 10° WSW 16:16:27 49° NW 16:22:50 10° NE
NOSS 3-4 (C) 4.1 16:10:39 10° WSW 16:16:33 49° NW 16:22:56 10° NE
SL-16 R/B 3.3 16:13:56 10° SSE 16:18:33 26° ESE 16:23:11 10° NE
Envisat 4.1 16:15:54 10° ESE 16:19:49 23° ENE 16:23:45 10° N
BREEZE-M DEB (TANK) 3.3 16:14:51 10° W 16:23:02 65° SSW 16:25:57 10° ESE
Cosmos 1992 Rocket 4.4 16:18:28 10° NNW 16:23:41 71° WSW 16:28:53 10° SSE
RESURS DK-1 3.3 16:20:13 10° SW 16:24:11 45° NW 16:28:11 10° NNE
Helios 1A Rocket 2.9 16:20:14 10° SSE 16:24:19 82° ENE 16:28:24 10° NNW
Cosmos 2237 Rocket 2.3 16:19:22 10° SSW 16:25:01 69° ESE 16:30:41 10° NNE
Cosmos 2251 Rocket 3.6 16:20:02 10° SSW 16:25:19 82° ESE 16:30:37 10° NNE
Cosmos 1943 Rocket 3.0 16:21:07 10° NNW 16:26:00 29° NE 16:30:49 10° ESE
COSMOS 2455 4.5 16:22:23 10° WNW 16:26:59 22° NNW 16:31:35 10° NNE
Cosmos 1500 3.3 16:24:38 10° NNW 16:28:25 81° W 16:32:09 10° S
Cosmos 1536 2.8 16:24:50 10° N 16:28:51 64° ENE 16:32:48 10° SSE
Cosmos 2322 Rocket 4.2 16:25:19 10° WNW 16:29:01 17° NNW 16:32:45 10° N
Cosmos 2219 Rocket 2.9 16:24:37 10° SW 16:30:06 52° NW 16:35:39 10° NNE
STARLINK-67 2.8 16:27:44 10° WNW 16:30:27 50° N 16:33:09 10° E
Cosmos 1812 2.7 16:27:48 10° S 16:31:40 76° E 16:35:32 10° NNE
Feng Yun 1-1 Rocket 4.4 16:27:05 10° SE 16:32:15 49° ENE 16:37:30 10° N
Cosmos 1689 Rocket 2.0 16:29:14 10° NNE 16:32:18 78° ESE 16:35:17 10° S
Cosmos 1782 Rocket 4.3 16:29:26 10° N 16:33:20 31° ENE 16:37:11 10° SE
Lacrosse 5 rocket 1.9 16:31:30 10° W 16:35:41 50° NNW 16:39:35 10° NE
Cosmos 2333 Rocket 3.1 16:30:47 10° SW 16:36:20 48° NW 16:41:56 10° NNE
FALCON 9 DEB 3.4 16:33:06 10° SW 16:36:35 66° SSE 16:39:56 11° ENE
AQUARIUS 4.5 16:34:46 10° SE 16:39:02 44° ENE 16:43:19 10° N
STARLINK-46 3.0 16:36:38 10° WNW 16:39:12 42° N 16:41:26 13° ENE
SL-4 R/B 1.8 16:35:57 10° W 16:39:39 70° N 16:43:38 10° E
SL-16 R/B 4.3 16:38:13 10° WNW 16:41:20 15° NNW 16:44:25 10° N
Radarsat Rocket 4.2 16:36:39 10° SSE 16:42:37 77° WSW 16:48:29 10° NNW
Cosmos 1862 Rocket 3.6 16:38:27 10° S 16:42:50 90° ENE 16:47:17 10° N
Lacrosse 5 3.9 16:44:24 10° SE 16:45:47 11° ESE 16:47:10 10° ESE
Cosmos 1703 Rocket 4.1 16:42:45 10° SSE 16:46:55 39° E 16:51:07 10° NNE
Okean 1 4.5 16:46:00 10° SE 16:49:10 23° E 16:52:16 10° NE
Cosmos 405 Rocket 4.2 16:47:55 10° NNE 16:50:17 16° ENE 16:52:40 10° ESE
Okean 2 Rocket 4.2 16:47:10 10° NNE 16:50:48 24° ENE 16:54:26 10° ESE
ATLAS 2AS CENTAUR R/B 3.9 16:47:17 10° W 16:54:43 39° NNW 17:01:46 11° NE
Aureole 1 Rocket 2.3 16:51:44 10° S 16:54:45 62° ESE 16:58:13 11° NNE
STARLINK-60 3.0 16:52:33 10° WSW 16:55:56 82° NNW 16:58:26 17° ENE
BREEZE-M R/B 3.2 16:49:38 10° W 16:56:11 81° S 16:59:21 11° ESE
NOAA 12 4.3 16:51:35 10° SE 16:56:39 50° ENE 17:01:44 10° N
Cosmos 1980 4.0 16:51:46 10° SW 16:57:24 70° WNW 17:03:06 10° NNE
Sich 1 Rocket 3.9 16:53:44 10° N 16:57:55 40° ENE 17:02:02 10° SE
Cosmos 1441 Rocket 3.0 16:57:27 10° N 17:01:17 74° ENE 17:05:01 10° SSE
H-2A R/B 2.5 17:02:20 10° SSE 17:06:00 78° ENE 17:09:43 10° N
SMAP 3.0 17:02:51 10° SSE 17:07:31 88° ENE 17:12:13 10° NNW
Cosmos 2297 4.0 17:02:41 10° NNW 17:08:23 74° WSW 17:14:01 10° SSE
COBE Rocket 3.8 17:04:47 10° NNE 17:09:26 63° E 17:14:07 10° S
Okean O Rocket 3.5 17:06:51 10° SSW 17:10:47 34° W 17:14:46 10° NNW
Cosmos 1627 Rocket 4.5 17:05:02 10° S 17:11:01 60° E 17:17:04 10° NNE
STARLINK-52 3.1 17:07:51 10° WSW 17:11:22 86° SSE 17:13:24 23° ENE
Okean 1-7 3.1 17:07:45 10° S 17:12:01 58° E 17:16:22 10° NNE
Cosmos 1666 3.2 17:08:26 10° NNW 17:12:09 62° W 17:15:50 10° S
Cosmos 1867 3.7 17:08:16 10° NW 17:13:46 84° SW 17:19:13 10° SE
CZ-4 R/B 2.1 17:11:34 10° SE 17:14:54 28° ENE 17:18:14 10° N
USA 215 3.4 17:10:07 16° ENE 17:15:29 68° SE 17:22:00 10° SW
Cosmos 1908 Rocket 4.1 17:11:37 10° NNW 17:15:58 62° W 17:20:15 10° S
BREEZE-M DEB (TANK) 3.2 17:11:13 10° W 17:16:11 44° SSW 17:18:32 14° ESE
YAOGAN 6 3.1 17:14:52 10° SE 17:18:10 36° ENE 17:21:32 10° N
Abrixas rocket 3.9 17:16:28 10° SSW 17:18:40 19° SSE 17:19:38 16° SE
STARLINK-29 3.1 17:15:58 10° WSW 17:19:30 82° NNW 17:21:14 28° ENE
Cosmos 2242 Rocket 4.1 17:15:18 10° SSW 17:19:50 63° WNW 17:24:25 10° N
Exosat Rocket 4.3 17:15:25 10° SW 17:20:18 49° NW 17:25:26 10° NNE
Cosmos 614 Rocket 3.9 17:17:13 10° SSW 17:22:16 71° ESE 17:26:38 14° NNE
Cosmos 1300 Rocket 4.2 17:18:54 10° N 17:22:49 32° ENE 17:26:41 10° SE
Cosmos 1975 2.9 17:19:34 10° N 17:23:30 49° ENE 17:27:23 10° SSE
Cosmos 1092 Rocket 4.0 17:17:20 10° S 17:23:38 88° WNW 17:29:54 10° N
Cosmos 1190 Rocket 4.0 17:19:51 10° S 17:24:58 63° ESE 17:29:07 16° NNE
COSMO-SKYMED 1 3.3 17:23:32 23° NE 17:25:26 32° E 17:29:20 10° SSE
Cosmos 676 Rocket 4.4 17:23:11 10° S 17:28:02 42° ESE 17:30:53 22° NE
CZ-4B R/B 4.3 17:27:18 10° NNW 17:29:24 15° WNW 17:31:28 10° W
COSMOS 2428 4.5 17:25:10 10° W 17:29:51 25° NW 17:34:34 10° NNE
YAOGAN 1 3.1 17:26:30 10° SE 17:30:27 35° ENE 17:34:24 10° N
YAOGAN 3 4.5 17:26:47 10° SSE 17:31:10 86° ENE 17:35:33 10° NNW
Cosmos 1655 Rocket 4.4 17:25:32 10° SSE 17:31:20 41° E 17:37:08 10° NNE
Cosmos 1954 Rocket 4.3 17:28:31 10° S 17:33:23 44° ESE 17:36:01 25° NE
Meteor 2-9 Rocket 4.3 17:27:57 10° N 17:33:48 60° ENE 17:39:28 10° SSE
Cosmos 921 Rocket 4.2 17:30:32 10° NNW 17:34:39 45° WSW 17:38:49 10° S
Lacrosse 4 Rocket 3.0 17:33:50 10° N 17:36:09 18° NNE 17:36:09 18° NNE
Okean-O 2.7 17:33:34 10° SSE 17:38:00 83° WSW 17:42:29 10° NNW
Okean 3 4.0 17:34:15 10° SSE 17:38:04 36° E 17:38:36 34° ENE
Cosmos 1174 4.0 17:34:12 10° SW 17:38:53 71° NW 17:40:53 28° NNE
Cosmos 1943 4.1 17:37:52 10° SSE 17:42:29 27° ESE 17:42:50 27° E
Cosmos 2360 Rocket 4.5 17:41:31 10° NW 17:43:57 13° NNW 17:46:23 10° N
Cosmos 1656 Rocket 4.1 17:39:23 10° NNW 17:44:29 38° NE 17:46:04 31° E
Cosmos 1140 Rocket 3.3 17:45:53 10° SSW 17:51:00 82° ESE 17:54:13 24° NNE
USA 267 3.7 17:44:47 10° SE 17:51:16 63° SW 17:57:46 10° WNW
Cosmos 2369 Rocket 2.1 17:46:12 10° NNW 17:51:52 80° ENE 17:57:32 10° SSE
NOSS 3-1 (C) 3.9 17:45:00 10° NW 17:52:18 75° NE 18:00:45 10° SE
Cosmos 1743 3.6 17:49:08 10° NNW 17:52:55 51° W 17:56:40 10° S
STARLINK-43 3.3 17:52:46 10° SW 17:56:28 66° SSE 17:56:49 61° ESE
S3M 3.8 17:50:17 10° N 17:56:31 74° E 18:02:38 10° SSE
Envisat 3.4 17:53:25 10° S 17:58:26 63° WSW 18:03:30 10° NNW
Cosmos 1023 Rocket 4.4 17:54:21 10° SSW 17:59:27 85° WNW 18:02:34 25° NNE
Cosmos 2266 Rocket 4.2 17:55:38 10° SSE 18:01:42 47° E 18:05:44 21° NNE
SL-16 R/B 2.6 17:56:37 10° SW 18:02:15 62° WNW 18:06:14 20° NNE
Cosmos 468 Rocket 4.0 17:57:28 10° NNW 18:02:36 57° ENE 18:04:48 33° SE
Cosmos 2151 Rocket 3.4 17:58:22 10° N 18:02:48 71° ENE 18:07:10 10° SSE
Meteor 1-18 Rocket 4.3 17:57:24 10° SSW 18:03:05 80° WNW 18:08:43 10° N
USA 229 DEB 3.8 17:56:34 10° NW 18:03:48 85° NE 18:10:45 13° SE
USA 229 3.8 17:56:40 10° NW 18:03:53 85° NE 18:10:44 13° SE
STARLINK-67 3.9 18:02:06 10° WNW 18:04:16 40° WSW 18:04:16 40° WSW
IRIDIUM 103 4.4 18:00:03 10° SSE 18:05:05 53° E 18:07:13 32° NNE
Cosmos 1553 Rocket 4.2 18:00:09 10° NNW 18:06:33 76° W 18:12:57 10° S
Cosmos 407 Rocket 4.1 18:03:15 10° SW 18:08:23 56° WNW 18:12:09 19° NNE
NOSS 3-1 (A) 3.9 18:02:02 10° NW 18:09:16 69° NE 18:14:13 27° ESE
Cosmos 2237 Rocket 3.8 18:04:42 10° WSW 18:09:35 28° NW 18:13:53 13° NNE
Cosmos 1603 3.8 18:04:06 10° S 18:09:39 55° ESE 18:10:51 46° ENE
Cosmos 1943 Rocket 2.5 18:04:37 10° NNW 18:10:14 67° WSW 18:15:45 10° SSE
SKYMED 2 3.5 18:12:12 41° NNE 18:13:43 88° WNW 18:18:04 10° SSW
FALCON 9 DEB 3.9 18:10:20 10° W 18:13:16 48° NW 18:13:16 48° NW
Cosmos 2219 Rocket 4.5 18:12:06 10° WNW 18:15:27 16° NNW 18:18:49 10° N
Lacrosse 5 rocket 2.5 18:11:48 10° WNW 18:15:14 30° N 18:15:14 30° N
SL-4 R/B 2.0 18:15:30 10° WNW 18:19:20 69° SSW 18:19:21 69° SSW
STARLINK-80 4.0 18:17:05 10° SW 18:20:09 51° SSW 18:20:09 51° SSW
CZ-4C R/B 2.4 18:17:56 10° SSW 18:22:34 48° SE 18:22:34 48° SE
IRIDIUM 106 4.2 18:18:09 10° S 18:23:21 75° E 18:25:24 38° NNE
SeaSat 1 4.1 18:26:42 20° N 18:26:42 20° N 18:28:40 10° NNW
Cosmos 405 Rocket 3.5 18:23:00 10° NNW 18:26:35 48° W 18:30:10 10° S
Lacrosse 5 2.2 18:22:49 10° SSW 18:27:22 50° SSE 18:27:22 50° SSE
CSL-04 Rocket 3.7 18:22:45 10° S 18:28:01 75° WSW 18:33:23 10° NNW
Cosmos 2208 Rocket 4.4 18:23:42 10° NNW 18:28:09 49° NNE 18:28:09 49° NNE
Okean 2 Rocket 4.2 18:24:49 10° NNW 18:29:06 44° W 18:33:23 10° SSW
USA 116 4.3 18:30:02 53° NNE 18:31:20 87° ESE 18:36:16 10° SSW
Meteor 2-4 Rocket 3.7 18:28:47 10° S 18:34:39 88° WNW 18:37:11 36° N
Ariane Rocket 4.1 18:43:51 32° N 18:43:51 32° N 18:46:34 10° NNW
Cosmos 1570 Rocket 4.2 18:36:50 10° NNW 18:41:08 59° N 18:41:08 59° N
Cosmos 883 Rocket 4.5 18:36:51 10° N 18:43:13 85° W 18:49:29 10° S
Gbstr 26 Del rocket 4.1 18:38:33 10° SW 18:45:06 53° SSE 18:45:06 53° SSE
Cosmos 2315 Rocket 3.8 18:39:16 10° N 18:45:39 83° E 18:51:55 10° S
Cosmos 2344 4.3 18:37:28 10° NW 18:46:55 88° SW 18:58:09 16° SE
ATLAS 2AS CENTAUR R/B 4.0 18:40:59 10° NW 18:47:53 30° N 18:49:12 29° NNE
Cosmos 1763 Rocket 3.5 18:43:08 10° NNW 18:47:49 73° NW 18:47:49 73° NW
Meteor 2-8 Rocket 4.3 18:43:31 10° N 18:49:36 85° W 18:55:40 10° S
CZ-4 R/B 3.2 18:46:32 10° SSW 18:49:55 29° W 18:53:18 10° NW
USA 215 3.4 18:57:28 55° NNE 18:58:31 62° NNW 19:04:56 10° W
COSMO-SKYMED 1 4.2 19:00:45 29° NW 19:01:35 32° WNW 19:05:26 10° SW
YAOGAN 1 4.5 19:02:50 10° SSW 19:06:36 28° W 19:10:23 10° NW
Lacrosse 4 Rocket 4.1 19:11:55 10° NW 19:12:29 14° NW 19:12:29 14° NW
Cosmos 1943 4.1 19:20:35 10° SW 19:24:41 45° WSW 19:24:41 45° WSW
SL-16 R/B 4.4 19:43:47 10° WNW 19:47:35 18° NNW 19:48:08 18° NNW
CZ-4C R/B 4.4 20:06:14 10° WSW 20:07:47 19° W 20:07:47 19° W
